When you browse on this site, cookies collect data to enhance your experience and personalize the content and advertising you see.
Visit our Privacy Policy to learn more. By continuing to use the site, you agree to this use of cookies and data.
  • Em Portugal
  • Lista de países
  • Para 7 dias
  • Temperatura da água
  • Mapas de satélite
  • Mapa do tempo
  • Widgets de tempo
  • user-avatar
    Iniciar Sessão

    Previsão horária em Orange Walk

    Hoje, 21 Fevereiro, Quinta-feira

    Tempo Temperatura Precipitação Vento Pressão Humidade
    00:00 +24°C° 0 mm 1 m/s 757 mmHg 92%
    01:00 +24°C° 0.2 mm 1 m/s 757 mmHg 93%
    02:00 +24°C° 0.2 mm 1 m/s 756 mmHg 94%
    03:00 +24°C° 0.2 mm 1 m/s 756 mmHg 95%
    04:00 +24°C° 0.1 mm 1 m/s 756 mmHg 95%
    05:00 +24°C° 0.1 mm 1 m/s 756 mmHg 96%
    06:00 +24°C° 0.1 mm 1 m/s 756 mmHg 96%
    07:00 +26°C° 0.2 mm 2 m/s 757 mmHg 90%
    08:00 +27°C° 0.2 mm 3 m/s 757 mmHg 84%
    09:00 +29°C° 0.2 mm 3 m/s 758 mmHg 77%
    10:00 +30°C° 0.1 mm 3 m/s 758 mmHg 69%
    11:00 +33°C° 0.1 mm 4 m/s 757 mmHg 61%
    12:00 +35°C° 0.1 mm 4 m/s 757 mmHg 53%
    13:00 +34°C° 0 mm 4 m/s 757 mmHg 54%
    14:00 +34°C° 0 mm 4 m/s 756 mmHg 56%
    15:00 +34°C° 0 mm 4 m/s 755 mmHg 57%
    16:00 +32°C° 0 mm 4 m/s 756 mmHg 64%
    17:00 +29°C° 0 mm 3 m/s 756 mmHg 71%
    18:00 +28°C° 0 mm 3 m/s 756 mmHg 78%
    19:00 +27°C° 0 mm 2 m/s 757 mmHg 82%
    20:00 +27°C° 0 mm 2 m/s 757 mmHg 86%
    21:00 +26°C° 0 mm 2 m/s 758 mmHg 90%
    22:00 +26°C° 0 mm 2 m/s 758 mmHg 91%
    23:00 +26°C° 0 mm 2 m/s 758 mmHg 92%

    Amanhã, 22 Fevereiro, Sexta-feira

    Tempo Temperatura Precipitação Vento Pressão Humidade
    00:00 +25°C° 0 mm 2 m/s 758 mmHg 93%
    01:00 +25°C° 0.1 mm 1 m/s 757 mmHg 94%
    02:00 +25°C° 0.1 mm 1 m/s 757 mmHg 94%
    03:00 +25°C° 0.1 mm 1 m/s 757 mmHg 95%
    04:00 +25°C° 0.1 mm 1 m/s 757 mmHg 95%
    05:00 +25°C° 0.1 mm 1 m/s 757 mmHg 95%
    06:00 +25°C° 0.1 mm 1 m/s 758 mmHg 94%
    07:00 +27°C° 0.1 mm 2 m/s 758 mmHg 87%
    08:00 +28°C° 0.1 mm 3 m/s 759 mmHg 79%
    09:00 +30°C° 0.1 mm 4 m/s 760 mmHg 72%
    10:00 +32°C° 0.1 mm 4 m/s 759 mmHg 68%
    11:00 +33°C° 0.1 mm 4 m/s 759 mmHg 64%
    12:00 +34°C° 0.1 mm 5 m/s 759 mmHg 60%
    13:00 +33°C° 0 mm 5 m/s 759 mmHg 60%
    14:00 +33°C° 0 mm 5 m/s 758 mmHg 60%
    15:00 +33°C° 0 mm 5 m/s 757 mmHg 60%
    16:00 +32°C° 0 mm 4 m/s 757 mmHg 67%
    17:00 +29°C° 0 mm 3 m/s 758 mmHg 74%
    18:00 +28°C° 0 mm 3 m/s 758 mmHg 81%
    19:00 +27°C° 0 mm 2 m/s 758 mmHg 84%
    20:00 +27°C° 0 mm 2 m/s 759 mmHg 86%
    21:00 +26°C° 0 mm 2 m/s 759 mmHg 88%
    22:00 +26°C° 0 mm 2 m/s 759 mmHg 88%
    23:00 +26°C° 0 mm 2 m/s 759 mmHg 88%

    Depois de amanhã, 23 Fevereiro, Sábado

    Tempo Temperatura Precipitação Vento Pressão Humidade
    00:00 +26°C° 0 mm 2 m/s 759 mmHg 88%
    01:00 +26°C° 0 mm 2 m/s 759 mmHg 89%
    02:00 +25°C° 0 mm 2 m/s 758 mmHg 90%
    03:00 +25°C° 0 mm 2 m/s 758 mmHg 90%
    04:00 +25°C° 0 mm 2 m/s 758 mmHg 91%
    05:00 +25°C° 0 mm 1 m/s 758 mmHg 91%
    06:00 +25°C° 0 mm 1 m/s 759 mmHg 91%
    07:00 +27°C° 0.1 mm 2 m/s 759 mmHg 84%
    08:00 +28°C° 0.1 mm 3 m/s 760 mmHg 77%
    09:00 +30°C° 0.1 mm 4 m/s 760 mmHg 70%
    10:00 +32°C° 0.2 mm 4 m/s 760 mmHg 67%
    11:00 +32°C° 0.2 mm 4 m/s 760 mmHg 64%
    12:00 +33°C° 0.2 mm 5 m/s 759 mmHg 61%
    13:00 +33°C° 0.1 mm 5 m/s 758 mmHg 60%
    14:00 +33°C° 0.1 mm 4 m/s 758 mmHg 59%
    15:00 +33°C° 0.1 mm 4 m/s 757 mmHg 58%
    16:00 +32°C° 0 mm 4 m/s 757 mmHg 64%
    17:00 +29°C° 0 mm 3 m/s 757 mmHg 71%
    18:00 +28°C° 0 mm 2 m/s 757 mmHg 77%
    19:00 +27°C° 0 mm 2 m/s 758 mmHg 82%
    20:00 +26°C° 0 mm 2 m/s 759 mmHg 86%
    21:00 +25°C° 0 mm 1 m/s 760 mmHg 90%
    22:00 +25°C° 0 mm 1 m/s 759 mmHg 92%
    23:00 +25°C° 0 mm 1 m/s 759 mmHg 93%

    24 Fevereiro, Domingo

    Tempo Temperatura Precipitação Vento Pressão Humidade
    00:00 +25°C° 0 mm 1 m/s 759 mmHg 94%
    01:00 +25°C° 0 mm 1 m/s 759 mmHg 95%
    02:00 +25°C° 0 mm 1 m/s 759 mmHg 95%
    03:00 +25°C° 0 mm 1 m/s 758 mmHg 96%
    04:00 +25°C° 0.1 mm 1 m/s 758 mmHg 96%
    05:00 +25°C° 0.1 mm 1 m/s 759 mmHg 96%
    06:00 +25°C° 0.1 mm 1 m/s 759 mmHg 97%
    07:00 +26°C° 0.2 mm 2 m/s 759 mmHg 91%
    08:00 +28°C° 0.2 mm 2 m/s 760 mmHg 85%
    09:00 +29°C° 0.2 mm 3 m/s 761 mmHg 79%
    10:00 +30°C° 0.4 mm 3 m/s 760 mmHg 75%
    11:00 +32°C° 0.4 mm 4 m/s 760 mmHg 70%
    12:00 +33°C° 0.4 mm 4 m/s 759 mmHg 65%
    13:00 +33°C° 0.2 mm 4 m/s 759 mmHg 63%
    14:00 +33°C° 0.2 mm 4 m/s 758 mmHg 61%
    15:00 +33°C° 0.2 mm 4 m/s 757 mmHg 59%
    16:00 +30°C° 0 mm 3 m/s 758 mmHg 64%
    17:00 +29°C° 0 mm 2 m/s 758 mmHg 69%
    18:00 +27°C° 0 mm 2 m/s 758 mmHg 74%
    19:00 +27°C° 0 mm 1 m/s 759 mmHg 80%
    20:00 +26°C° 0 mm 1 m/s 759 mmHg 86%
    21:00 +25°C° 0 mm 1 m/s 760 mmHg 92%
    22:00 +25°C° 0.1 mm 1 m/s 759 mmHg 93%
    23:00 +25°C° 0.1 mm 1 m/s 759 mmHg 95%

    25 Fevereiro, Segunda-feira

    Tempo Temperatura Precipitação Vento Pressão Humidade
    00:00 +24°C° 0.1 mm 1 m/s 759 mmHg 96%
    01:00 +24°C° 0 mm 1 m/s 759 mmHg 96%
    02:00 +24°C° 0 mm 1 m/s 758 mmHg 96%
    03:00 +24°C° 0 mm 1 m/s 758 mmHg 96%
    04:00 +24°C° 0.1 mm 1 m/s 759 mmHg 96%
    05:00 +24°C° 0.1 mm 1 m/s 759 mmHg 96%
    06:00 +24°C° 0.1 mm 1 m/s 759 mmHg 97%
    07:00 +26°C° 0.8 mm 2 m/s 760 mmHg 92%
    08:00 +27°C° 0.8 mm 2 m/s 761 mmHg 87%
    09:00 +28°C° 0.8 mm 3 m/s 761 mmHg 82%
    10:00 +30°C° 0.4 mm 3 m/s 761 mmHg 73%
    11:00 +31°C° 0.4 mm 3 m/s 761 mmHg 65%
    12:00 +33°C° 0.4 mm 4 m/s 760 mmHg 57%
    13:00 +33°C° 0 mm 4 m/s 760 mmHg 55%
    14:00 +33°C° 0 mm 4 m/s 759 mmHg 54%
    15:00 +33°C° 0 mm 4 m/s 759 mmHg 52%
    16:00 +30°C° 0 mm 3 m/s 759 mmHg 60%
    17:00 +29°C° 0 mm 3 m/s 759 mmHg 68%
    18:00 +27°C° 0 mm 2 m/s 759 mmHg 76%
    19:00 +26°C° 0 mm 2 m/s 760 mmHg 82%
    20:00 +25°C° 0 mm 1 m/s 760 mmHg 87%
    21:00 +24°C° 0 mm 1 m/s 761 mmHg 93%
    22:00 +24°C° 0 mm 1 m/s 761 mmHg 94%
    23:00 +24°C° 0 mm 1 m/s 760 mmHg 95%

    26 Fevereiro, Terça-feira

    Tempo Temperatura Precipitação Vento Pressão Humidade
    00:00 +24°C° 0 mm 1 m/s 760 mmHg 96%
    01:00 +24°C° 0 mm 1 m/s 760 mmHg 96%
    02:00 +24°C° 0 mm 1 m/s 760 mmHg 96%
    03:00 +24°C° 0 mm 1 m/s 759 mmHg 96%
    04:00 +24°C° 0 mm 1 m/s 759 mmHg 95%
    05:00 +24°C° 0 mm 1 m/s 760 mmHg 95%
    06:00 +24°C° 0 mm 1 m/s 760 mmHg 95%
    07:00 +26°C° 0 mm 2 m/s 760 mmHg 85%
    08:00 +28°C° 0 mm 2 m/s 761 mmHg 76%
    09:00 +30°C° 0 mm 3 m/s 762 mmHg 66%
    10:00 +30°C° 0.2 mm 3 m/s 761 mmHg 64%
    11:00 +32°C° 0.2 mm 4 m/s 761 mmHg 63%
    12:00 +32°C° 0.2 mm 4 m/s 761 mmHg 61%
    13:00 +33°C° 0.1 mm 4 m/s 760 mmHg 57%
    14:00 +33°C° 0.1 mm 4 m/s 759 mmHg 54%
    15:00 +33°C° 0.1 mm 4 m/s 759 mmHg 51%
    16:00 +30°C° 0 mm 3 m/s 759 mmHg 59%
    17:00 +29°C° 0 mm 3 m/s 759 mmHg 66%
    18:00 +27°C° 0 mm 2 m/s 760 mmHg 74%
    19:00 +26°C° 0 mm 2 m/s 760 mmHg 80%
    20:00 +25°C° 0 mm 1 m/s 761 mmHg 86%
    21:00 +24°C° 0 mm 1 m/s 761 mmHg 91%
    22:00 +24°C° 0 mm 1 m/s 761 mmHg 93%
    23:00 +24°C° 0 mm 1 m/s 761 mmHg 94%
    Mostrar mais